EW6790 Weather Reports


Display with metric or nautical units.
time (UTC)temp
F
wind
direction
speed
MPH
gust
MPH
rain 1hr
in
rain 24hr
in
rain mn
in
humidity
%
barometer
mb
20220818140058 69 204 9.0 15.0 0.00 0.00 0.00 84 1013.7
20220818134635 69 202 9.0 13.0 0.00 0.00 0.00 84 1013.9
20220818133048 67 212 7.0 13.0 0.00 0.00 0.00 86 1014.0
20220818131539 66 206 8.0 13.0 0.00 0.00 0.00 87 1014.1
20220818130011 65 216 7.0 11.0 0.00 0.00 0.00 89 1014.4
20220818124507 64 205 7.0 12.0 0.00 0.00 0.00 90 1014.5
20220818123049 63 212 7.0 10.0 0.00 0.00 0.00 91 1014.7
20220818121553 63 206 7.0 10.0 0.00 0.00 0.00 91 1014.8
20220818120046 62 199 7.0 11.0 0.00 0.00 0.00 92 1014.8
20220818114546 62 195 7.0 10.0 0.00 0.00 0.00 92 1014.7
20220818113034 62 210 6.0 10.0 0.00 0.00 0.00 91 1014.6
20220818111533 63 217 7.0 12.0 0.00 0.00 0.00 90 1014.3
20220818110036 62 210 7.0 11.0 0.00 0.00 0.00 92 1014.4
20220818104531 62 202 6.0 9.0 0.00 0.00 0.00 92 1014.3
20220818103149 62 209 6.0 9.0 0.00 0.00 0.00 91 1014.4
20220818101537 63 203 6.0 10.0 0.00 0.00 0.00 91 1014.4
20220818100009 63 203 8.0 10.0 0.00 0.00 0.00 91 1014.6
20220818094513 62 205 6.0 9.0 0.00 0.00 0.00 91 1014.8
20220818093049 62 210 7.0 9.0 0.00 0.00 0.00 92 1014.6
20220818091548 63 195 5.0 10.0 0.00 0.00 0.00 90 1014.7
20220818090028 63 211 7.0 10.0 0.00 0.00 0.00 91 1014.8
20220818084542 63 216 6.0 8.0 0.00 0.00 0.00 91 1015.0
20220818083011 62 212 5.0 6.0 0.00 0.00 0.00 92 1015.0
20220818081514 62 188 4.0 6.0 0.00 0.00 0.00 91 1015.1
20220818080047 62 202 5.0 6.0 0.00 0.00 0.00 91 1015.1
20220818074618 63 209 5.0 7.0 0.00 0.00 0.00 90 1015.2
20220818073043 64 167 4.0 7.0 0.00 0.00 0.00 90 1015.5
20220818071522 64 190 5.0 7.0 0.00 0.00 0.00 89 1015.7
20220818070024 64 193 6.0 7.0 0.00 0.00 0.00 90 1016.0
20220818064509 64 187 4.0 6.0 0.00 0.00 0.00 90 1016.1
20220818063011 64 203 5.0 7.0 0.00 0.00 0.00 90 1016.3
20220818061507 64 200 4.0 6.0 0.00 0.00 0.00 89 1016.2
20220818060001 64 191 5.0 6.0 0.00 0.00 0.00 89 1016.2
20220818054603 65 195 4.0 6.0 0.00 0.00 0.00 89 1016.0
20220818053102 65 210 5.0 6.0 0.00 0.00 0.00 89 1016.1
20220818051609 65 200 4.0 6.0 0.00 0.00 0.00 89 1016.0
20220818051503 66 201 5.0 6.0 0.00 0.00 0.00 89 1016.0
20220818050103 66 206 5.0 5.0 0.00 0.00 0.00 88 1016.1
20220818044539 67 203 5.0 7.0 0.00 0.00 0.00 88 1016.3
20220818043053 66 207 5.0 6.0 0.00 0.00 0.00 89 1016.4
20220818041521 66 210 5.0 6.0 0.00 0.00 0.00 89 1016.3
20220818040034 67 192 3.0 5.0 0.00 0.00 0.00 88 1016.3
20220818034502 68 161 4.0 5.0 0.00 0.00 0.00 87 1016.4
20220818033003 67 192 4.0 5.0 0.00 0.00 0.00 88 1016.4
20220818031605 69 203 4.0 5.0 0.00 0.00 0.00 87 1016.4
20220818030059 69 197 4.0 5.0 0.00 0.00 0.00 87 1016.4
20220818024525 69 203 5.0 6.0 0.00 0.00 0.00 88 1016.6
20220818023030 70 185 3.0 4.0 0.00 0.00 0.00 85 1016.5
20220818021508 71 165 3.0 4.0 0.00 0.00 0.00 82 1016.6
20220818020006 72 183 3.0 4.0 0.00 0.00 0.00 82 1016.4
20220818014559 72 164 4.0 4.0 0.00 0.00 0.00 83 1016.3
20220818013046 72 191 4.0 5.0 0.00 0.00 0.00 81 1016.1
20220818011607 73 199 3.0 4.0 0.00 0.00 0.00 80 1016.4
20220818010036 74 199 3.0 4.0 0.00 0.00 0.00 79 1016.5
20220818004515 76 201 2.0 4.0 0.00 0.00 0.00 76 1016.6
20220818003007 77 205 3.0 6.0 0.00 0.00 0.00 72 1016.7
20220818001548 78 219 2.0 4.0 0.00 0.00 0.00 71 1016.7
20220818000055 79 204 3.0 5.0 0.00 0.00 0.00 68 1016.7
20220817234532 79 210 5.0 9.0 0.00 0.00 0.00 67 1016.8
20220817233044 80 207 1.0 6.0 0.00 0.00 0.00 66 1017.1
20220817231507 80 193 2.0 5.0 0.00 0.00 0.00 68 1017.2
20220817230012 81 236 3.0 6.0 0.00 0.00 0.00 63 1017.3
20220817224607 81 256 2.0 6.0 0.00 0.00 0.00 64 1017.3
20220817223048 80 192 4.0 7.0 0.00 0.00 0.00 65 1017.4
20220817221544 81 210 5.0 8.0 0.00 0.00 0.00 62 1017.6
20220817220040 81 198 5.0 8.0 0.00 0.00 0.00 62 1017.8
20220817214601 82 212 4.0 6.0 0.00 0.00 0.00 61 1017.9
20220817213037 81 238 3.0 5.0 0.00 0.00 0.00 61 1018.1
20220817211534 81 198 4.0 7.0 0.00 0.00 0.00 62 1018.2
20220817210027 80 234 1.0 8.0 0.00 0.00 0.00 62 1018.3
20220817204532 81 141 1.0 7.0 0.00 0.00 0.00 65 1018.4
20220817203048 81 184 5.0 8.0 0.00 0.00 0.00 63 1018.6
20220817201506 81 273 1.0 7.0 0.00 0.00 0.00 62 1018.7
20220817200003 80 250 3.0 5.0 0.00 0.00 0.00 64 1018.8
20220817194611 79 103 2.0 5.0 0.00 0.00 0.00 68 1019.0
20220817193048 80 103 3.0 5.0 0.00 0.00 0.00 64 1018.9
20220817191528 80 97 1.0 4.0 0.00 0.00 0.00 64 1019.0
20220817190023 80 161 1.0 3.0 0.00 0.00 0.00 64 1019.2
20220817184503 80 191 2.0 4.0 0.00 0.00 0.00 66 1019.4
20220817183002 80 105 3.0 5.0 0.00 0.00 0.00 65 1019.4
20220817181543 79 86 3.0 6.0 0.00 0.00 0.00 66 1019.6
20220817180057 78 172 3.0 5.0 0.00 0.00 0.00 66 1019.6
20220817174525 78 271 0.0 4.0 0.00 0.00 0.00 66 1019.7
20220817173023 79 210 1.0 3.0 0.00 0.00 0.00 65 1019.9
20220817171503 77 257 3.0 6.0 0.00 0.00 0.00 65 1020.0
20220817170136 77 231 2.0 6.0 0.00 0.00 0.00 68 1020.2
20220817164542 76 234 1.0 6.0 0.00 0.00 0.00 68 1020.2
20220817163043 76 288 1.0 7.0 0.00 0.00 0.00 72 1020.3
20220817161527 75 199 1.0 5.0 0.00 0.00 0.00 74 1020.3
20220817160030 74 223 0.0 5.0 0.00 0.00 0.00 75 1020.4
20220817154526 73 272 0.0 6.0 0.00 0.00 0.00 77 1020.4
20220817153030 73 274 1.0 4.0 0.00 0.00 0.00 75 1020.5
20220817151533 73 193 2.0 5.0 0.00 0.00 0.00 78 1020.5
20220817150014 72 222 2.0 5.0 0.00 0.00 0.00 78 1020.5
20220817144538 71 251 1.0 5.0 0.00 0.00 0.00 79 1020.5
20220817143010 71 200 2.0 4.0 0.00 0.00 0.00 80 1020.6
20220817141507 71 216 2.0 4.0 0.00 0.00 0.00 77 1020.6